Location: Asheville, NC
(35.6000°N, 82.5500°W)
Time: 01:30:02
(UTC-05:00)

AO-85 - Pass Details

Date: 10 February 2018
Orbit: 506 x 780 km, 64.8° (Epoch: 22 February)

Event Time Altitude Azimuth Distance (km) Brightness Sun altitude
Rises 06:22:23 0° 196° (SSW) 2,611 ? -12.7°
Reaches altitude 10° 06:24:32 10° 190° (S) 1,748 ? -12.2°
Maximum altitude 06:28:17 49° 115° (ESE) 705 ? -11.5°
Drops below altitude 10° 06:32:19 10° 40° (NE) 1,873 ? -10.7°
Sets 06:34:41 0° 35° (NE) 2,821 ? -10.2°
